DW1234 Weather Reports


time (UTC)temp
F
wind
direction
speed
knots
gust
knots
rain 1hr
in
rain 24hr
in
rain mn
in
humidity
%
barometer
mb
20260506230725 61 300 9.6 16.5 0.00 0.00 0.00 29 1017.0
20260506230237 61 278 5.2 16.5 0.00 0.00 0.00 27 1017.0
20260506230041 60 281 9.6 16.5 0.00 0.00 0.00 27 1017.2
20260506225748 61 292 9.6 14.8 0.00 0.00 0.00 27 1017.0
20260506225228 62 292 11.3 14.8 0.00 0.00 0.00 28 1017.0
20260506224740 62 306 6.1 12.2 0.00 0.00 0.00 27 1017.0
20260506224556 62 283 6.1 13.0 0.00 0.00 0.00 29 1017.2
20260506224226 62 288 5.2 15.6 0.00 0.00 0.00 29 1017.1
20260506223758 62 306 8.7 15.6 0.00 0.00 0.00 28 1017.1
20260506223221 62 355 7.8 15.6 0.00 0.00 0.00 26 1017.1
20260506223029 62 336 9.6 17.4 0.00 0.00 0.00 28 1017.3
20260506222733 63 316 7.8 17.4 0.00 0.00 0.00 27 1017.2
20260506222246 62 305 9.6 17.4 0.00 0.00 0.00 26 1017.1
20260506221730 62 309 13.0 17.4 0.00 0.00 0.00 27 1017.2
20260506221531 61 296 7.8 17.4 0.00 0.00 0.00 28 1017.4
20260506221239 62 304 10.4 17.4 0.00 0.00 0.00 27 1017.3
20260506220749 63 313 11.3 17.4 0.00 0.00 0.00 27 1017.3
20260506220232 63 337 7.0 15.6 0.00 0.00 0.00 26 1017.3
20260506220041 63 281 7.8 15.6 0.00 0.00 0.00 28 1017.5
20260506215746 63 284 9.6 18.2 0.00 0.00 0.00 27 1017.4
20260506215235 63 299 9.6 18.2 0.00 0.00 0.00 28 1017.4
20260506214747 63 295 10.4 14.8 0.00 0.00 0.00 27 1017.4
20260506214523 62 303 4.3 16.5 0.00 0.00 0.00 32 1017.6
20260506214232 61 315 7.8 16.5 0.00 0.00 0.00 28 1017.5
20260506213738 61 292 11.3 20.0 0.00 0.00 0.00 27 1017.5
20260506213221 62 301 10.4 20.0 0.00 0.00 0.00 29 1017.6
20260506213033 62 315 7.8 13.9 0.00 0.00 0.00 30 1017.7
20260506212735 63 345 6.1 13.0 0.00 0.00 0.00 29 1017.6
20260506212247 62 283 7.0 14.8 0.00 0.00 0.00 29 1017.7
20260506211740 62 292 5.2 16.5 0.00 0.00 0.00 33 1017.7
20260506211513 61 294 10.4 20.0 0.00 0.00 0.00 30 1018.0
20260506211226 61 5 10.4 20.0 0.00 0.00 0.00 27 1017.7
20260506210736 63 344 10.4 20.0 0.00 0.00 0.00 29 1017.8
20260506210304 62 272 8.7 13.9 0.00 0.00 0.00 30 1017.8
20260506210053 62 266 6.1 13.9 0.00 0.00 0.00 28 1018.1
20260506205726 62 298 5.2 18.2 0.00 0.00 0.00 31 1018.1
20260506205239 62 255 9.6 18.2 0.00 0.00 0.00 29 1018.2
20260506204809 62 306 8.7 16.5 0.00 0.00 0.00 30 1018.1
20260506204531 62 281 7.0 16.5 0.00 0.00 0.00 32 1018.2
20260506204232 62 292 7.0 13.0 0.00 0.00 0.00 32 1018.3
20260506203743 62 328 4.3 19.1 0.00 0.00 0.00 28 1018.3
20260506203227 62 292 11.3 19.1 0.00 0.00 0.00 29 1018.4
20260506203037 62 281 12.2 19.1 0.00 0.00 0.00 28 1018.4
20260506202736 62 304 11.3 17.4 0.00 0.00 0.00 31 1018.5
20260506202243 61 299 7.0 19.1 0.00 0.00 0.00 29 1018.5
20260506201724 63 275 8.7 19.1 0.00 0.00 0.00 30 1018.5
20260506201543 62 306 13.0 19.1 0.00 0.00 0.00 31 1018.7
20260506201237 62 291 10.4 17.4 0.00 0.00 0.00 31 1018.6
20260506200806 61 332 10.4 15.6 0.00 0.00 0.00 29 1018.6
20260506200227 63 335 6.1 16.5 0.00 0.00 0.00 34 1018.6
20260506200019 61 344 7.0 16.5 0.00 0.00 0.00 37 1018.8
20260506195801 60 321 6.1 16.5 0.00 0.00 0.00 35 1018.6
20260506195225 60 279 7.8 14.8 0.00 0.00 0.00 35 1018.7
20260506194732 60 333 8.7 17.4 0.00 0.00 0.00 31 1018.8
20260506194505 59 302 7.8 17.4 0.00 0.00 0.00 32 1018.9
20260506194245 61 293 9.6 17.4 0.00 0.00 0.00 31 1018.8
20260506193729 60 305 11.3 18.2 0.00 0.00 0.00 34 1018.8
20260506193300 60 346 10.4 18.2 0.00 0.00 0.00 31 1018.8
20260506193040 60 315 11.3 18.2 0.00 0.00 0.00 32 1019.0
20260506192723 60 271 7.0 15.6 0.00 0.00 0.00 34 1018.7
20260506192236 62 289 8.7 17.4 0.00 0.00 0.00 32 1018.8
20260506191749 62 312 11.3 17.4 0.00 0.00 0.00 31 1018.8
20260506191551 61 286 13.0 17.4 0.00 0.00 0.00 32 1018.9
20260506191231 60 311 8.7 20.0 0.00 0.00 0.00 33 1018.7
20260506190744 62 278 10.4 21.7 0.00 0.00 0.00 30 1018.8
20260506190235 61 267 13.9 21.7 0.00 0.00 0.00 32 1018.8
20260506190033 61 287 12.2 20.9 0.00 0.00 0.00 33 1019.0
20260506185745 61 248 13.0 20.9 0.00 0.00 0.00 33 1018.8
20260506185227 59 316 12.2 18.2 0.00 0.00 0.00 31 1018.9
20260506184740 58 340 12.2 18.2 0.00 0.00 0.00 32 1019.0
20260506184535 58 5 9.6 15.6 0.00 0.00 0.00 33 1019.2
20260506184225 59 316 8.7 15.6 0.00 0.00 0.00 32 1019.2
20260506183734 59 321 7.0 14.8 0.00 0.00 0.00 36 1019.2
20260506183239 58 288 6.1 17.4 0.00 0.00 0.00 34 1019.3
20260506183044 58 336 6.1 17.4 0.00 0.00 0.00 33 1019.4
20260506182750 59 323 7.8 17.4 0.00 0.00 0.00 35 1019.3
20260506182231 60 345 8.7 13.0 0.00 0.00 0.00 34 1019.3
20260506181743 60 317 4.3 15.6 0.00 0.00 0.00 39 1019.3
20260506181547 58 355 6.1 15.6 0.00 0.00 0.00 39 1019.6
20260506181228 59 355 10.4 15.6 0.00 0.00 0.00 32 1019.4
20260506180800 61 344 10.4 15.6 0.00 0.00 0.00 34 1019.4
20260506180250 60 331 7.8 12.2 0.00 0.00 0.00 39 1019.3
20260506180045 60 250 7.0 14.8 0.00 0.00 0.00 33 1019.6
20260506175739 61 297 6.1 15.6 0.00 0.00 0.00 38 1019.5
20260506175249 60 284 10.4 19.1 0.00 0.00 0.00 34 1019.7
20260506174732 60 288 11.3 19.1 0.00 0.00 0.00 35 1019.6
20260506174549 59 265 7.8 15.6 0.00 0.00 0.00 37 1019.9
20260506174306 59 249 7.8 18.2 0.00 0.00 0.00 37 1019.7
20260506173727 60 251 12.2 18.2 0.00 0.00 0.00 33 1019.8
20260506173259 59 330 11.3 21.7 0.00 0.00 0.00 35 1019.9
20260506173002 59 296 12.2 21.7 0.00 0.00 0.00 34 1020.1
20260506172745 60 298 11.3 21.7 0.00 0.00 0.00 33 1019.9
20260506172226 59 282 11.3 17.4 0.00 0.00 0.00 35 1019.9
20260506171739 59 322 6.1 13.0 0.00 0.00 0.00 38 1020.1
20260506171508 58 309 8.7 13.0 0.00 0.00 0.00 39 1020.3
20260506171254 56 338 5.2 9.6 0.00 0.00 0.00 42 1020.2
20260506170745 56 265 6.1 12.2 0.00 0.00 0.00 38 1020.2
20260506170228 57 292 6.1 16.5 0.00 0.00 0.00 37 1020.2
20260506170048 57 347 6.1 16.5 0.00 0.00 0.00 43 1020.3
20260506165739 57 329 6.1 16.5 0.00 0.00 0.00 36 1020.2
20260506165221 58 333 11.3 16.5 0.00 0.00 0.00 38 1020.2
20260506164728 57 315 7.8 15.6 0.00 0.00 0.00 37 1020.3
20260506164559 56 328 7.0 16.5 0.00 0.00 0.00 39 1020.4
20260506164242 56 312 9.6 17.4 0.00 0.00 0.00 38 1020.4
20260506163723 57 320 13.0 17.4 0.00 0.00 0.00 35 1020.3
20260506163237 57 288 11.3 16.5 0.00 0.00 0.00 37 1020.3
20260506163008 56 360 7.0 14.8 0.00 0.00 0.00 38 1020.5
20260506162747 56 348 7.8 17.4 0.00 0.00 0.00 36 1020.3
20260506162232 56 253 7.8 17.4 0.00 0.00 0.00 38 1020.4
20260506161743 57 293 8.7 15.6 0.00 0.00 0.00 38 1020.4
20260506161511 56 294 10.4 15.6 0.00 0.00 0.00 39 1020.5
20260506161226 56 314 9.6 15.6 0.00 0.00 0.00 38 1020.3
20260506160732 55 253 7.8 14.8 0.00 0.00 0.00 39 1020.3
20260506160246 55 306 9.6 13.9 0.00 0.00 0.00 37 1020.2
20260506160015 55 285 7.8 13.9 0.00 0.00 0.00 39 1020.5
20260506155730 55 355 7.8 13.9 0.00 0.00 0.00 38 1020.4
20260506155244 55 309 7.8 11.3 0.00 0.00 0.00 39 1020.2
20260506154726 54 323 3.5 22.6 0.00 0.00 0.00 37 1020.2
20260506154512 54 288 7.0 22.6 0.00 0.00 0.00 39 1020.3
20260506154300 55 293 8.7 22.6 0.00 0.00 0.00 37 1020.2
20260506153723 56 325 6.1 13.0 0.00 0.00 0.00 37 1020.2
20260506153230 55 307 5.2 13.0 0.00 0.00 0.00 40 1020.2
20260506153053 55 302 7.8 16.5 0.00 0.00 0.00 37 1020.4
20260506152743 56 348 7.8 16.5 0.00 0.00 0.00 39 1020.1
20260506152227 56 290 7.8 13.0 0.00 0.00 0.00 39 1020.1
20260506151758 56 295 7.0 12.2 0.00 0.00 0.00 40 1020.0
20260506151538 55 336 7.8 12.2 0.00 0.00 0.00 40 1020.3
20260506151311 56 315 2.6 11.3 0.00 0.00 0.00 41 1020.1
20260506150731 55 303 7.0 11.3 0.00 0.00 0.00 39 1020.1
20260506150241 54 336 4.3 11.3 0.00 0.00 0.00 41 1020.2
20260506150016 53 336 2.6 11.3 0.00 0.00 0.00 44 1020.4
20260506145747 54 324 7.0 11.3 0.00 0.00 0.00 43 1020.2
20260506145237 53 323 4.3 9.6 0.00 0.00 0.00 44 1020.3
20260506144721 54 313 6.1 8.7 0.00 0.00 0.00 45 1020.2
20260506144504 53 329 3.5 8.7 0.00 0.00 0.00 42 1020.5
20260506144236 53 355 4.3 8.7 0.00 0.00 0.00 43 1020.2
20260506143745 54 355 3.5 8.7 0.00 0.00 0.00 45 1020.3
20260506143255 53 340 5.2 7.0 0.00 0.00 0.00 44 1020.2
20260506143033 52 336 3.5 7.0 0.00 0.00 0.00 47 1020.4
20260506142743 53 329 3.5 10.4 0.00 0.00 0.00 43 1020.2
20260506142226 52 323 6.1 10.4 0.00 0.00 0.00 44 1020.2
20260506141738 51 347 4.3 8.7 0.00 0.00 0.00 43 1020.1
20260506141532 51 5 5.2 8.7 0.00 0.00 0.00 44 1020.4
20260506141312 52 328 4.3 8.7 0.00 0.00 0.00 43 1020.2
20260506140733 51 342 5.2 8.7 0.00 0.00 0.00 44 1020.1
20260506140244 52 314 2.6 8.7 0.00 0.00 0.00 50 1020.1
20260506140018 50 316 3.5 8.7 0.00 0.00 0.00 51 1020.3
20260506135726 50 360 5.2 8.7 0.00 0.00 0.00 47 1020.0
20260506135238 50 355 6.1 8.7 0.00 0.00 0.00 47 1019.8
20260506134746 49 5 5.2 8.7 0.00 0.00 0.00 48 1019.8
20260506134514 49 5 7.0 8.7 0.00 0.00 0.00 48 1020.1
20260506134230 49 22 5.2 8.7 0.00 0.00 0.00 48 1019.7
20260506133740 49 5 5.2 7.8 0.00 0.00 0.00 48 1019.7
20260506133223 49 342 2.6 7.0 0.00 0.00 0.00 52 1019.7
20260506133006 48 355 1.7 7.0 0.00 0.00 0.00 53 1020.0
20260506132732 48 321 3.5 7.0 0.00 0.00 0.00 54 1019.7
20260506132242 48 5 4.3 7.0 0.00 0.00 0.00 51 1019.6
20260506131723 48 298 3.5 7.8 0.00 0.00 0.00 53 1019.6
20260506131548 47 360 3.5 7.8 0.00 0.00 0.00 55 1019.8
20260506131233 47 343 4.3 7.8 0.00 0.00 0.00 52 1019.5
20260506130744 47 350 3.5 7.0 0.00 0.00 0.00 54 1019.4
20260506130228 46 321 2.6 7.8 0.00 0.00 0.00 57 1019.4
20260506130050 45 324 4.3 7.8 0.00 0.00 0.00 56 1019.6
20260506125739 45 325 5.2 7.8 0.00 0.00 0.00 55 1019.3
20260506125222 45 310 5.2 7.8 0.00 0.00 0.00 56 1019.4
20260506124754 44 315 4.3 7.8 0.00 0.00 0.00 58 1019.3
20260506124534 44 321 3.5 5.2 0.00 0.00 0.00 59 1019.5
20260506124246 44 320 2.6 7.0 0.00 0.00 0.00 59 1019.1
20260506123728 43 329 3.5 7.0 0.00 0.00 0.00 59 1019.0
20260506123256 43 302 3.5 7.0 0.00 0.00 0.00 59 1018.9
20260506123006 42 309 2.6 7.0 0.00 0.00 0.00 59 1019.1
20260506122748 43 313 4.3 7.0 0.00 0.00 0.00 59 1018.9
20260506122227 42 323 2.6 4.3 0.00 0.00 0.00 60 1018.8
20260506121737 42 323 1.7 3.5 0.00 0.00 0.00 59 1018.6
20260506121556 41 323 1.7 3.5 0.00 0.00 0.00 59 1018.8
20260506121249 41 323 2.6 3.5 0.00 0.00 0.00 59 1018.6
20260506120730 41 323 1.7 3.5 0.00 0.00 0.00 59 1018.5
20260506120243 41 348 1.7 3.5 0.00 0.00 0.00 59 1018.5
20260506120039 40 347 1.7 3.5 0.00 0.00 0.00 59 1018.7
20260506115730 40 348 2.6 5.2 0.00 0.00 0.00 59 1018.4
20260506115240 40 330 2.6 5.2 0.00 0.00 0.00 58 1018.4
20260506114725 40 317 3.5 4.3 0.00 0.00 0.00 58 1018.3
20260506114540 40 327 2.6 4.3 0.00 0.00 0.00 58 1018.4
20260506114239 41 330 2.6 4.3 0.00 0.00 0.00 58 1018.1
20260506113749 41 325 3.5 4.3 0.00 0.00 0.00 58 1018.1
20260506113242 41 318 2.6 4.3 0.00 0.00 0.00 58 1018.1
20260506113022 40 319 2.6 4.3 0.00 0.00 0.00 58 1018.3
20260506112724 41 315 2.6 4.3 0.00 0.00 0.00 58 1018.2
20260506112231 41 317 2.6 4.3 0.00 0.00 0.00 57 1018.1
20260506111742 41 325 2.6 3.5 0.00 0.00 0.00 57 1018.1
20260506111528 41 314 1.7 3.5 0.00 0.00 0.00 57 1018.3
20260506111254 41 311 2.6 3.5 0.00 0.00 0.00 57 1018.1
20260506110723 41 315 2.6 4.3 0.00 0.00 0.00 57 1018.0
20260506110234 41 315 2.6 4.3 0.00 0.00 0.00 56 1017.9
20260506110052 41 315 2.6 4.3 0.00 0.00 0.00 56 1018.1
20260506105745 42 318 2.6 4.3 0.00 0.00 0.00 56 1018.0
20260506105226 42 315 2.6 4.3 0.00 0.00 0.00 55 1018.0
20260506104734 42 316 3.5 4.3 0.00 0.00 0.00 54 1018.0
20260506104600 41 326 2.6 3.5 0.00 0.00 0.00 54 1018.2
20260506104248 42 330 2.6 3.5 0.00 0.00 0.00 54 1018.0
20260506103730 42 328 2.6 3.5 0.00 0.00 0.00 53 1018.0
20260506103240 42 321 2.6 5.2 0.00 0.00 0.00 53 1017.9
20260506103058 42 327 2.6 5.2 0.00 0.00 0.00 53 1018.1
20260506102724 42 319 3.5 5.2 0.00 0.00 0.00 53 1017.9
20260506102235 42 329 4.3 5.2 0.00 0.00 0.00 53 1017.9
20260506101745 42 327 3.5 5.2 0.00 0.00 0.00 53 1017.9
20260506101558 42 317 3.5 5.2 0.00 0.00 0.00 53 1017.9
20260506101229 43 319 3.5 5.2 0.00 0.00 0.00 52 1017.8
20260506100735 43 323 3.5 5.2 0.00 0.00 0.00 52 1017.7
20260506100245 43 325 3.5 5.2 0.00 0.00 0.00 52 1017.7
20260506100100 42 327 3.5 6.1 0.00 0.00 0.00 52 1017.9
20260506095728 43 325 3.5 4.3 0.00 0.00 0.00 51 1017.7
20260506095300 43 317 3.5 4.3 0.00 0.00 0.00 51 1017.6
20260506094749 43 332 3.5 4.3 0.00 0.00 0.00 50 1017.6
20260506094536 43 332 2.6 4.3 0.00 0.00 0.00 50 1017.7
20260506094234 44 339 2.6 4.3 0.00 0.00 0.00 50 1017.5
20260506093744 44 336 3.5 5.2 0.00 0.00 0.00 50 1017.5
20260506093310 44 329 3.5 5.2 0.00 0.00 0.00 49 1017.5
20260506093047 43 317 2.6 4.3 0.00 0.00 0.00 49 1017.7
20260506092732 44 324 3.5 4.3 0.00 0.00 0.00 49 1017.4
20260506092306 44 327 2.6 3.5 0.00 0.00 0.00 49 1017.4
20260506091725 44 329 2.6 3.5 0.00 0.00 0.00 49 1017.3
20260506091527 44 333 2.6 3.5 0.00 0.00 0.00 49 1017.4
20260506091237 44 336 1.7 4.3 0.00 0.00 0.00 49 1017.3
20260506090748 44 336 2.6 5.2 0.00 0.01 0.00 49 1017.3
20260506090231 45 340 2.6 7.0 0.00 0.01 0.00 48 1017.3
20260506090031 44 344 3.5 7.0 0.00 0.01 0.00 48 1017.4
20260506085738 45 351 3.5 7.0 0.00 0.01 0.00 48 1017.2
20260506085249 45 336 3.5 5.2 0.00 0.01 0.00 48 1017.2
20260506084739 45 345 2.6 4.3 0.00 0.01 0.00 48 1017.2
20260506084511 44 341 2.6 4.3 0.00 0.01 0.00 48 1017.3
20260506084310 45 348 2.6 4.3 0.00 0.01 0.00 48 1017.1
20260506083730 45 344 2.6 4.3 0.00 0.01 0.00 48 1017.0
20260506083242 45 338 2.6 4.3 0.00 0.01 0.00 48 1017.0
20260506083050 45 342 2.6 4.3 0.00 0.01 0.00 48 1017.2
20260506082723 45 333 2.6 4.3 0.00 0.01 0.00 48 1016.9
20260506082250 45 348 3.5 4.3 0.00 0.01 0.00 47 1016.9
20260506081741 45 341 3.5 4.3 0.00 0.01 0.00 47 1016.9
20260506081527 45 344 2.6 4.3 0.00 0.01 0.00 47 1017.0
20260506081254 45 343 2.6 4.3 0.00 0.01 0.00 47 1016.9
20260506080740 45 335 2.6 5.2 0.00 0.01 0.00 47 1016.9
20260506080222 46 336 2.6 4.3 0.00 0.01 0.00 46 1016.8
20260506073239 46 360 3.5 5.2 0.00 0.01 0.00 45 1016.5
20260506073023 46 350 2.6 4.3 0.00 0.01 0.00 45 1016.7
20260506072749 46 355 3.5 4.3 0.00 0.01 0.00 45 1016.6
20260506072240 47 348 3.5 5.2 0.00 0.01 0.00 45 1016.6
20260506071747 47 348 3.5 5.2 0.00 0.01 0.00 45 1016.6
20260506071505 46 355 3.5 5.2 0.00 0.01 0.00 45 1016.7
20260506071233 47 5 3.5 7.8 0.00 0.01 0.00 45 1016.6
20260506070743 47 355 3.5 7.8 0.00 0.01 0.00 45 1016.7
20260506070226 47 360 4.3 5.2 0.00 0.01 0.00 44 1016.6
20260506062230 48 355 3.5 7.0 0.00 0.01 0.00 43 1016.7
20260506061742 48 5 5.2 7.8 0.00 0.01 0.00 42 1016.6
20260506061535 47 5 3.5 7.8 0.00 0.01 0.00 42 1016.7
20260506061228 48 339 4.3 7.8 0.00 0.01 0.00 42 1016.7
20260506060740 48 329 4.3 7.8 0.00 0.01 0.00 42 1016.6
20260506060222 48 343 5.2 8.7 0.00 0.01 0.00 41 1016.5
20260506051240 49 355 5.2 10.4 0.00 0.01 0.00 40 1016.1
20260506050749 49 351 6.1 10.4 0.00 0.01 0.01 41 1015.9
20260506050233 49 328 6.1 9.6 0.00 0.01 0.01 41 1015.9
20260506050107 49 346 5.2 9.6 0.00 0.01 0.01 40 1016.0
20260506044733 50 344 5.2 8.7 0.00 0.01 0.01 40 1015.8
20260506044510 49 355 4.3 8.7 0.00 0.01 0.01 40 1015.7
20260506044242 50 355 5.2 8.7 0.00 0.01 0.01 40 1015.6
20260506043724 50 355 5.2 7.8 0.00 0.01 0.01 40 1015.7
20260506043235 50 344 7.0 9.6 0.00 0.01 0.01 40 1015.7
20260506043016 49 360 5.2 9.6 0.00 0.01 0.01 40 1015.7
20260506042748 50 360 7.0 9.6 0.00 0.01 0.01 40 1015.7
20260506042232 50 350 6.1 8.7 0.00 0.01 0.01 40 1015.6
20260506041744 50 348 4.3 7.8 0.00 0.01 0.01 40 1015.6
20260506041516 50 343 4.3 7.8 0.00 0.01 0.01 41 1015.6
20260506041229 50 347 5.2 7.8 0.00 0.01 0.01 40 1015.5
20260506040740 50 360 4.3 7.8 0.00 0.01 0.01 40 1015.4
20260506040247 50 342 4.3 7.8 0.00 0.01 0.01 40 1015.4
20260506040033 50 351 4.3 8.7 0.00 0.01 0.01 40 1015.4
20260506035731 51 355 4.3 8.7 0.00 0.01 0.01 40 1015.4
20260506035306 51 348 5.2 8.7 0.00 0.01 0.01 39 1015.4
20260506034725 51 333 6.1 8.7 0.00 0.01 0.01 39 1015.5
20260506034556 50 360 5.2 9.6 0.00 0.01 0.01 39 1015.5
20260506034237 51 350 5.2 9.6 0.00 0.01 0.01 39 1015.5
20260506033746 51 344 5.2 9.6 0.00 0.01 0.01 39 1015.4
20260506033230 51 345 6.1 9.6 0.00 0.01 0.01 38 1015.4
20260506033058 51 348 5.2 9.6 0.00 0.01 0.01 38 1015.4
20260506032737 51 345 6.1 8.7 0.00 0.01 0.01 38 1015.3
20260506032249 51 5 6.1 8.7 0.00 0.01 0.01 38 1015.3
20260506031738 51 343 6.1 8.7 0.00 0.01 0.01 38 1015.3
20260506031546 51 348 6.1 8.7 0.00 0.01 0.01 38 1015.2
20260506031224 52 360 6.1 9.6 0.00 0.01 0.01 38 1015.2
20260506030736 52 327 6.1 12.2 0.00 0.01 0.01 37 1015.2
20260506030248 52 5 8.7 12.2 0.00 0.01 0.01 37 1015.1
20260506030057 51 342 7.0 13.9 0.00 0.01 0.01 37 1015.1
20260506025732 52 355 7.0 13.9 0.00 0.01 0.01 37 1015.0
20260506025243 52 351 10.4 13.9 0.00 0.01 0.01 36 1014.9
20260506024721 52 355 10.4 13.9 0.00 0.01 0.01 36 1014.7
20260506024552 51 335 7.8 12.2 0.00 0.01 0.01 37 1014.7
20260506024254 52 345 7.0 12.2 0.00 0.01 0.01 37 1014.7
20260506023744 52 9 7.8 13.0 0.00 0.01 0.01 37 1014.7
20260506023230 52 336 8.7 13.0 0.00 0.01 0.01 37 1014.6
20260506023042 52 355 7.8 13.0 0.00 0.01 0.01 37 1014.6
20260506022744 52 345 7.8 13.0 0.00 0.01 0.01 37 1014.5
20260506022229 52 329 7.8 13.0 0.00 0.01 0.01 37 1014.4
20260506021739 52 14 8.7 13.0 0.00 0.01 0.01 37 1014.3
20260506021536 52 342 8.7 13.9 0.00 0.01 0.01 37 1014.3
20260506021247 53 5 9.6 13.9 0.00 0.01 0.01 37 1014.3
20260506020729 53 355 9.6 14.8 0.00 0.01 0.01 37 1014.3
20260506020238 53 346 9.6 15.6 0.00 0.01 0.01 36 1014.3
20260506020036 52 342 8.7 15.6 0.00 0.01 0.01 36 1014.2
20260506015749 53 343 10.4 14.8 0.00 0.01 0.01 36 1014.2
20260506015238 53 334 10.4 13.9 0.00 0.01 0.01 37 1014.0
20260506014723 53 13 8.7 12.2 0.00 0.01 0.01 37 1014.1
20260506014513 52 355 8.7 13.0 0.00 0.01 0.01 37 1014.0
20260506014237 53 335 7.0 13.0 0.00 0.01 0.01 38 1014.0
20260506013745 53 355 7.8 13.0 0.00 0.01 0.01 37 1013.9
20260506013228 53 348 7.8 15.6 0.00 0.01 0.01 37 1013.9
20260506013105 53 5 7.8 15.6 0.00 0.01 0.01 37 1013.9
20260506013006 53 355 7.8 15.6 0.00 0.01 0.01 37 1013.8
20260506012721 53 342 8.7 15.6 0.00 0.01 0.01 37 1013.9
20260506012235 54 360 10.4 14.8 0.00 0.01 0.01 36 1013.8
20260506011721 54 349 10.4 16.5 0.00 0.01 0.01 36 1013.7
20260506011517 53 320 10.4 16.5 0.00 0.01 0.01 36 1013.6
20260506011235 54 342 8.7 16.5 0.00 0.01 0.01 36 1013.7
20260506010745 54 331 9.6 16.5 0.00 0.01 0.01 36 1013.6
20260506010226 54 342 9.6 16.5 0.00 0.01 0.01 35 1013.6
20260506010041 54 360 11.3 19.1 0.00 0.01 0.01 35 1013.4
20260506005739 54 341 9.6 19.1 0.00 0.01 0.01 35 1013.5
20260506005221 54 348 10.4 19.1 0.00 0.01 0.01 35 1013.6
20260506004733 54 355 8.7 15.6 0.00 0.01 0.01 36 1013.5
20260506004525 54 333 9.6 15.6 0.00 0.01 0.01 35 1013.4
20260506004308 54 355 11.3 16.5 0.00 0.01 0.01 35 1013.4
20260506003729 55 344 12.2 18.2 0.00 0.01 0.01 35 1013.3
20260506003243 55 355 9.6 20.0 0.00 0.01 0.01 35 1013.2
20260506003011 54 360 12.2 20.0 0.00 0.01 0.01 35 1012.9
20260506002729 55 336 13.9 20.0 0.00 0.01 0.01 34 1013.2
20260506002305 55 360 10.4 19.1 0.00 0.01 0.01 35 1013.2
20260506001722 55 344 11.3 19.1 0.00 0.01 0.01 34 1013.2
20260506001549 55 313 13.9 19.1 0.00 0.01 0.01 34 1013.0
20260506001235 55 317 9.6 16.5 0.00 0.01 0.01 35 1013.3
20260506000745 55 5 12.2 16.5 0.00 0.01 0.01 34 1013.3
20260506000235 55 350 11.3 15.6 0.00 0.01 0.01 34 1013.2
20260506000011 55 333 11.3 18.2 0.00 0.01 0.01 35 1013.0
20260505235747 56 355 10.4 18.2 0.00 0.01 0.01 35 1013.1
20260505235234 56 350 12.2 18.2 0.00 0.01 0.01 34 1013.1
20260505234746 56 355 12.2 19.1 0.00 0.01 0.01 34 1013.0
20260505234532 56 5 12.2 22.6 0.00 0.01 0.01 35 1012.8
20260505234228 56 346 12.2 22.6 0.00 0.01 0.01 34 1013.0
20260505233738 57 330 16.5 22.6 0.00 0.01 0.01 34 1012.9
20260505233251 57 340 15.6 20.9 0.00 0.01 0.01 34 1012.8
20260505233027 56 327 13.9 18.2 0.00 0.01 0.01 34 1012.6
20260505232732 57 291 10.4 16.5 0.00 0.01 0.01 35 1012.7
20260505232244 57 327 10.4 14.8 0.00 0.01 0.01 35 1012.7
20260505231728 57 339 10.4 16.5 0.00 0.01 0.01 35 1012.7
20260505231519 56 338 9.6 16.5 0.00 0.01 0.01 35 1012.5
20260505231239 57 329 11.3 16.5 0.00 0.01 0.01 34 1012.6